Hourly Data Report for September 15, 2017

All times are specified in Local Standard Time (LST). Add 1 hour to adjust for Daylight Saving Time where and when it is observed.

POND INLET A
NUNAVUT

72°41'22.000" N
77°58'08.000" W
61.60 m
2403206
71095
YIO

Download Data

Hourly Data (September 2017)
Hourly Data Report for September 15, 2017
Temp Definition
°C
Dew Point Temp Definition
°C
Rel Hum Definition
%
Wind Dir Definition
10's deg

Wind Spd Definition
km/h
Visibility Definition
km
Stn Press Definition
kPa
Hmdx Definition


Wind Chill Definition


Weather Definition


TIME
00:00 Legend Double Dagger -4.4 -6.1 88 15 9 16.1 100.29   -8 LegendNANA
01:00 Legend Double Dagger -4.9 -6.2 91 15 15 16.1 100.27   -10 LegendNANA
02:00 Legend Double Dagger -3.8 -5.1 91 15 15 16.1 100.26   -9 LegendNANA
03:00 Legend Double Dagger -2.6 -4.0 90 15 15 16.1 100.24   -8 LegendNANA
04:00 Legend Double Dagger -2.5 -3.9 90 16 17 16.1 100.23   -8 LegendNANA
05:00 Legend Double Dagger -2.2 -3.8 89 16 11 16.1 100.22   -6 LegendNANA
06:00 Legend Double Dagger -2.2 -3.9 88 16 13 16.1 100.22   -7 LegendNANA
07:00 Legend Double Dagger -1.8 -3.8 86 16 15 16.1 100.21   -7 LegendNANA
08:00 Legend Double Dagger -1.5 -3.7 85 15 17 16.1 100.19   -7 LegendNANA
09:00 Legend Double Dagger -1.0 -3.4 84 16 18 6.4 100.18   -6 Snow
10:00 Legend Double Dagger -0.9 -3.0 86 16 15 4.8 100.17   -6 Snow
11:00 Legend Double Dagger -0.5 -2.6 86 33 4 3.6 100.15   -2 Snow
12:00 Legend Double Dagger -0.6 -2.5 87 LegendMM 4 16.1 100.16   -2 LegendNANA
13:00 Legend Double Dagger -0.7 -1.8 92 7 8 16.1 100.14   -4 LegendNANA
14:00 Legend Double Dagger -0.8 -1.8 93 6 5 16.1 100.15   -2 LegendNANA
15:00 Legend Double Dagger -0.8 -1.7 94 6 8 16.1 100.16   -4 LegendNANA
16:00 Legend Double Dagger -0.8 -1.8 93 4 5 16.1 100.18   -2 LegendNANA
17:00 Legend Double Dagger -0.7 -1.8 92 5 5 16.1 100.16   -2 LegendNANA
18:00 Legend Double Dagger -0.2 -1.5 91 14 9 16.1 100.15   -3 LegendNANA
19:00 Legend Double Dagger -0.5 -1.8 91 5 11 16.1 100.16   -4 LegendNANA
20:00 Legend Double Dagger -0.5 -2.4 87 6 8 16.1 100.16   -3 LegendNANA
21:00 Legend Double Dagger -0.2 -2.7 83 2 9 16.1 100.13   -3 LegendNANA
22:00 Legend Double Dagger -0.2 -2.9 82 4 8 16.1 100.12   -3 LegendNANA
23:00 Legend Double Dagger -0.2 -2.7 83 LegendMM LegendMM LegendMM 100.10     LegendNANA

Notes on Data Quality.

Legend

  • E = Estimated
  • M = Missing
  • NA = Not Available
  • ‡ = Partner data that is not subject to review by the National Climate Archives
Date modified: